| time (UTC) | temp F | wind direction | speed knots | gust knots | rain 1hr in | rain 24hr in | rain mn in | humidity % | barometer mb |
| 20260505065507 | 64 | 214 | 0.9 | 4.3 | 0.00 | 0.00 | 0.00 | 65 | 1006.5 |
| 20260505065006 | 65 | 118 | 0.9 | 3.5 | 0.00 | 0.00 | 0.00 | 64 | 1006.6 |
| 20260505064520 | 65 | 47 | 1.7 | 4.3 | 0.00 | 0.00 | 0.00 | 63 | 1006.5 |
| 20260505064010 | 66 | 243 | 0.0 | 7.8 | 0.00 | 0.00 | 0.00 | 62 | 1006.7 |
| 20260505063507 | 66 | 53 | 2.6 | 9.6 | 0.00 | 0.00 | 0.00 | 60 | 1006.6 |
| 20260505063024 | 67 | 206 | 1.7 | 13.0 | 0.00 | 0.00 | 0.00 | 57 | 1006.5 |
| 20260505062509 | 69 | 37 | 1.7 | 13.0 | 0.00 | 0.00 | 0.00 | 56 | 1006.3 |
| 20260505062013 | 70 | 333 | 0.0 | 5.2 | 0.00 | 0.00 | 0.00 | 60 | 1006.1 |
| 20260505061529 | 70 | 231 | 0.9 | 5.2 | 0.00 | 0.00 | 0.00 | 59 | 1005.0 |
| 20260505061009 | 70 | 229 | 1.7 | 6.1 | 0.00 | 0.00 | 0.00 | 59 | 1004.6 |
| 20260505060511 | 70 | 230 | 2.6 | 6.1 | 0.00 | 0.00 | 0.00 | 59 | 1004.6 |
| 20260505060033 | 70 | 221 | 1.7 | 8.7 | 0.00 | 0.00 | 0.00 | 59 | 1004.6 |
| 20260505055512 | 70 | 275 | 2.6 | 8.7 | 0.00 | 0.00 | 0.00 | 59 | 1004.5 |
| 20260505055014 | 71 | 232 | 1.7 | 7.0 | 0.00 | 0.00 | 0.00 | 59 | 1004.4 |
| 20260505054528 | 71 | 254 | 2.6 | 7.0 | 0.00 | 0.00 | 0.00 | 58 | 1004.2 |
| 20260505054012 | 71 | 229 | 2.6 | 7.8 | 0.00 | 0.00 | 0.00 | 58 | 1004.2 |
| 20260505053510 | 71 | 203 | 2.6 | 6.1 | 0.00 | 0.00 | 0.00 | 59 | 1004.2 |
| 20260505053025 | 71 | 226 | 2.6 | 6.1 | 0.00 | 0.00 | 0.00 | 58 | 1004.2 |
| 20260505052510 | 71 | 236 | 1.7 | 8.7 | 0.00 | 0.00 | 0.00 | 58 | 1004.1 |
| 20260505052011 | 71 | 229 | 2.6 | 8.7 | 0.00 | 0.00 | 0.00 | 58 | 1003.9 |
| 20260505051524 | 71 | 204 | 2.6 | 7.0 | 0.00 | 0.00 | 0.00 | 58 | 1003.8 |
| 20260505051008 | 71 | 223 | 2.6 | 7.0 | 0.00 | 0.00 | 0.00 | 57 | 1003.7 |
| 20260505050509 | 71 | 225 | 1.7 | 6.1 | 0.00 | 0.00 | 0.00 | 57 | 1003.6 |
| 20260505041524 | 71 | 191 | 2.6 | 7.8 | 0.00 | 0.00 | 0.00 | 58 | 1003.5 |
| 20260505041005 | 71 | 149 | 0.9 | 4.3 | 0.00 | 0.00 | 0.00 | 58 | 1003.4 |
| 20260505040504 | 71 | 213 | 2.6 | 6.1 | 0.00 | 0.00 | 0.00 | 58 | 1003.5 |
| 20260505040010 | 71 | 200 | 1.7 | 6.1 | 0.00 | 0.00 | 0.00 | 59 | 1003.5 |
| 20260505035508 | 71 | 181 | 0.9 | 2.6 | 0.00 | 0.00 | 0.00 | 59 | 1003.6 |
| 20260505035008 | 71 | 198 | 0.9 | 3.5 | 0.00 | 0.00 | 0.00 | 58 | 1003.7 |
| 20260505034511 | 71 | 190 | 0.9 | 3.5 | 0.00 | 0.00 | 0.00 | 58 | 1003.7 |
| 20260505034004 | 72 | 188 | 0.9 | 3.5 | 0.00 | 0.00 | 0.00 | 57 | 1003.9 |
| 20260505033508 | 72 | 183 | 1.7 | 5.2 | 0.00 | 0.00 | 0.00 | 57 | 1003.9 |
| 20260505033031 | 73 | 188 | 0.9 | 5.2 | 0.00 | 0.00 | 0.00 | 56 | 1003.9 |
| 20260505032506 | 73 | 195 | 1.7 | 3.5 | 0.00 | 0.00 | 0.00 | 55 | 1003.9 |
| 20260505032008 | 73 | 211 | 1.7 | 7.8 | 0.00 | 0.00 | 0.00 | 55 | 1003.8 |
| 20260505031520 | 73 | 219 | 1.7 | 7.8 | 0.00 | 0.00 | 0.00 | 55 | 1003.8 |
| 20260505031010 | 73 | 205 | 1.7 | 4.3 | 0.00 | 0.00 | 0.00 | 55 | 1003.8 |
| 20260505030510 | 73 | 175 | 0.9 | 4.3 | 0.00 | 0.00 | 0.00 | 56 | 1003.8 |
| 20260505030024 | 74 | 169 | 1.7 | 4.3 | 0.00 | 0.00 | 0.00 | 55 | 1003.8 |
| 20260505025503 | 74 | 232 | 1.7 | 4.3 | 0.00 | 0.00 | 0.00 | 55 | 1003.9 |
| 20260505025002 | 73 | 174 | 0.9 | 4.3 | 0.00 | 0.00 | 0.00 | 56 | 1003.8 |
| 20260505024513 | 74 | 197 | 0.0 | 4.3 | 0.00 | 0.00 | 0.00 | 56 | 1003.7 |
| 20260505024010 | 74 | 249 | 0.9 | 4.3 | 0.00 | 0.00 | 0.00 | 55 | 1003.6 |
| 20260505023505 | 73 | 214 | 1.7 | 4.3 | 0.00 | 0.00 | 0.00 | 56 | 1003.5 |
| 20260505023013 | 73 | 231 | 0.9 | 2.6 | 0.00 | 0.00 | 0.00 | 57 | 1003.5 |
| 20260505022510 | 73 | 202 | 0.9 | 2.6 | 0.00 | 0.00 | 0.00 | 56 | 1003.4 |
| 20260505022010 | 73 | 215 | 0.9 | 1.7 | 0.00 | 0.00 | 0.00 | 58 | 1003.3 |
| 20260505021522 | 72 | 227 | 0.0 | 2.6 | 0.00 | 0.00 | 0.00 | 59 | 1003.2 |
| 20260505021008 | 72 | 215 | 0.0 | 2.6 | 0.00 | 0.00 | 0.00 | 60 | 1003.0 |
| 20260505020507 | 72 | 186 | 0.0 | 1.7 | 0.00 | 0.00 | 0.00 | 60 | 1002.9 |
| 20260505020023 | 72 | 206 | 0.0 | 1.7 | 0.00 | 0.00 | 0.00 | 60 | 1002.9 |
| 20260505015507 | 72 | 206 | 0.0 | 1.7 | 0.00 | 0.00 | 0.00 | 59 | 1002.8 |
| 20260505015010 | 72 | 191 | 0.0 | 1.7 | 0.00 | 0.00 | 0.00 | 59 | 1002.7 |
| 20260505014534 | 72 | 178 | 0.0 | 1.7 | 0.00 | 0.00 | 0.00 | 59 | 1002.6 |
| 20260505014006 | 72 | 141 | 0.0 | 0.0 | 0.00 | 0.00 | 0.00 | 58 | 1002.5 |
| 20260505013503 | 73 | 143 | 0.0 | 0.0 | 0.00 | 0.00 | 0.00 | 58 | 1002.5 |
| 20260505013012 | 73 | 143 | 0.0 | 0.0 | 0.00 | 0.00 | 0.00 | 57 | 1002.4 |
| 20260505012507 | 73 | 143 | 0.0 | 0.0 | 0.00 | 0.00 | 0.00 | 57 | 1002.4 |
| 20260505012008 | 73 | 143 | 0.0 | 0.0 | 0.00 | 0.00 | 0.00 | 56 | 1002.3 |
| 20260505011515 | 74 | 217 | 0.0 | 0.0 | 0.00 | 0.00 | 0.00 | 56 | 1002.3 |
| 20260505011006 | 74 | 167 | 0.0 | 1.7 | 0.00 | 0.00 | 0.00 | 56 | 1002.2 |
| 20260505010509 | 74 | 132 | 0.0 | 1.7 | 0.00 | 0.00 | 0.00 | 56 | 1002.3 |
| 20260505010024 | 74 | 189 | 0.0 | 1.7 | 0.00 | 0.00 | 0.00 | 55 | 1002.2 |
| 20260505005508 | 75 | 182 | 0.0 | 1.7 | 0.00 | 0.00 | 0.00 | 54 | 1002.2 |
| 20260505005008 | 75 | 227 | 0.0 | 1.7 | 0.00 | 0.00 | 0.00 | 54 | 1002.2 |
| 20260505004526 | 76 | 240 | 0.9 | 1.7 | 0.00 | 0.00 | 0.00 | 53 | 1002.2 |
| 20260505004008 | 76 | 224 | 0.9 | 1.7 | 0.00 | 0.00 | 0.00 | 52 | 1002.1 |
| 20260505003510 | 76 | 224 | 0.9 | 3.5 | 0.00 | 0.00 | 0.00 | 52 | 1002.0 |
| 20260505003025 | 77 | 232 | 0.9 | 3.5 | 0.00 | 0.00 | 0.00 | 51 | 1002.0 |
| 20260505002508 | 77 | 230 | 0.9 | 3.5 | 0.00 | 0.00 | 0.00 | 51 | 1001.9 |
| 20260505002007 | 78 | 209 | 0.9 | 3.5 | 0.00 | 0.00 | 0.00 | 50 | 1001.9 |
| 20260505001517 | 78 | 180 | 0.9 | 2.6 | 0.00 | 0.00 | 0.00 | 50 | 1001.9 |
| 20260505001008 | 78 | 215 | 0.9 | 2.6 | 0.00 | 0.00 | 0.00 | 50 | 1001.9 |
| 20260505000506 | 78 | 213 | 0.9 | 3.5 | 0.00 | 0.00 | 0.00 | 50 | 1001.9 |
| 20260505000024 | 78 | 236 | 0.9 | 3.5 | 0.00 | 0.00 | 0.00 | 50 | 1001.8 |
| 20260504235507 | 79 | 317 | 0.9 | 3.5 | 0.00 | 0.00 | 0.00 | 50 | 1001.9 |
| 20260504235011 | 79 | 205 | 1.7 | 6.1 | 0.00 | 0.00 | 0.00 | 48 | 1002.0 |
| 20260504234524 | 79 | 240 | 0.9 | 6.1 | 0.00 | 0.00 | 0.00 | 49 | 1002.0 |
| 20260504234013 | 79 | 242 | 1.7 | 6.1 | 0.00 | 0.00 | 0.00 | 48 | 1001.9 |
| 20260504233507 | 79 | 197 | 0.9 | 3.5 | 0.00 | 0.00 | 0.00 | 49 | 1001.9 |
| 20260504233028 | 79 | 217 | 0.9 | 3.5 | 0.00 | 0.00 | 0.00 | 48 | 1002.0 |
| 20260504232511 | 79 | 164 | 0.9 | 4.3 | 0.00 | 0.00 | 0.00 | 48 | 1002.0 |
| 20260504232011 | 79 | 187 | 0.9 | 7.8 | 0.00 | 0.00 | 0.00 | 47 | 1002.1 |
| 20260504231516 | 80 | 227 | 2.6 | 7.8 | 0.00 | 0.00 | 0.00 | 45 | 1002.1 |
| 20260504231007 | 80 | 238 | 1.7 | 8.7 | 0.00 | 0.00 | 0.00 | 46 | 1002.2 |
| 20260504230506 | 80 | 222 | 2.6 | 8.7 | 0.00 | 0.00 | 0.00 | 45 | 1002.2 |
| 20260504230019 | 80 | 241 | 0.9 | 5.2 | 0.00 | 0.00 | 0.00 | 47 | 1002.2 |
| 20260504225508 | 80 | 277 | 2.6 | 4.3 | 0.00 | 0.00 | 0.00 | 45 | 1002.3 |
| 20260504225010 | 80 | 227 | 1.7 | 4.3 | 0.00 | 0.00 | 0.00 | 46 | 1002.4 |
| 20260504224533 | 80 | 242 | 2.6 | 7.0 | 0.00 | 0.00 | 0.00 | 45 | 1002.4 |
| 20260504224008 | 80 | 243 | 2.6 | 7.8 | 0.00 | 0.00 | 0.00 | 46 | 1002.3 |
| 20260504223510 | 80 | 251 | 4.3 | 8.7 | 0.00 | 0.00 | 0.00 | 44 | 1002.4 |
| 20260504223026 | 80 | 254 | 1.7 | 8.7 | 0.00 | 0.00 | 0.00 | 45 | 1002.4 |
| 20260504222508 | 80 | 215 | 3.5 | 5.2 | 0.00 | 0.00 | 0.00 | 45 | 1002.4 |
| 20260504222010 | 80 | 203 | 1.7 | 5.2 | 0.00 | 0.00 | 0.00 | 47 | 1002.5 |
| 20260504221526 | 80 | 224 | 0.9 | 5.2 | 0.00 | 0.00 | 0.00 | 48 | 1002.6 |
| 20260504221012 | 80 | 185 | 0.9 | 5.2 | 0.00 | 0.00 | 0.00 | 49 | 1002.6 |
| 20260504220510 | 80 | 158 | 0.9 | 4.3 | 0.00 | 0.00 | 0.00 | 48 | 1002.5 |
| 20260504220018 | 80 | 200 | 0.9 | 7.0 | 0.00 | 0.00 | 0.00 | 48 | 1002.6 |
| 20260504215505 | 81 | 225 | 2.6 | 7.0 | 0.00 | 0.00 | 0.00 | 46 | 1002.6 |
| 20260504215008 | 81 | 182 | 1.7 | 8.7 | 0.00 | 0.00 | 0.00 | 50 | 1002.5 |
| 20260504214527 | 81 | 249 | 3.5 | 11.3 | 0.00 | 0.00 | 0.00 | 47 | 1002.5 |
| 20260504214010 | 81 | 150 | 2.6 | 11.3 | 0.00 | 0.00 | 0.00 | 46 | 1002.6 |
| 20260504213510 | 81 | 127 | 1.7 | 6.1 | 0.00 | 0.00 | 0.00 | 47 | 1002.6 |
| 20260504213024 | 81 | 86 | 2.6 | 8.7 | 0.00 | 0.00 | 0.00 | 46 | 1002.7 |
| 20260504212508 | 81 | 273 | 3.5 | 9.6 | 0.00 | 0.00 | 0.00 | 48 | 1002.7 |
| 20260504212013 | 81 | 227 | 1.7 | 9.6 | 0.00 | 0.00 | 0.00 | 49 | 1002.7 |
| 20260504211528 | 81 | 261 | 3.5 | 9.6 | 0.00 | 0.00 | 0.00 | 49 | 1002.7 |
| 20260504211009 | 81 | 222 | 3.5 | 7.0 | 0.00 | 0.00 | 0.00 | 48 | 1002.9 |
| 20260504210509 | 81 | 197 | 1.7 | 5.2 | 0.00 | 0.00 | 0.00 | 50 | 1002.9 |
| 20260504210035 | 81 | 211 | 0.9 | 7.0 | 0.00 | 0.00 | 0.00 | 54 | 1002.7 |
| 20260504205511 | 80 | 228 | 3.5 | 7.0 | 0.00 | 0.00 | 0.00 | 52 | 1002.8 |
| 20260504205010 | 79 | 128 | 1.7 | 6.1 | 0.00 | 0.00 | 0.00 | 53 | 1002.7 |
| 20260504204529 | 79 | 186 | 0.9 | 6.1 | 0.00 | 0.00 | 0.00 | 55 | 1002.8 |
| 20260504204008 | 79 | 229 | 1.7 | 12.2 | 0.00 | 0.00 | 0.00 | 56 | 1002.9 |
| 20260504203510 | 79 | 198 | 4.3 | 12.2 | 0.00 | 0.00 | 0.00 | 52 | 1003.1 |
| 20260504203027 | 79 | 217 | 1.7 | 8.7 | 0.00 | 0.00 | 0.00 | 55 | 1003.1 |
| 20260504202509 | 78 | 72 | 3.5 | 7.8 | 0.00 | 0.00 | 0.00 | 57 | 1003.2 |
| 20260504202008 | 78 | 234 | 1.7 | 6.1 | 0.00 | 0.00 | 0.00 | 57 | 1003.3 |
| 20260504201525 | 77 | 175 | 1.7 | 7.0 | 0.00 | 0.00 | 0.00 | 59 | 1003.3 |
| 20260504201008 | 76 | 242 | 1.7 | 7.0 | 0.00 | 0.00 | 0.00 | 56 | 1003.4 |
| 20260504200508 | 78 | 227 | 1.7 | 6.1 | 0.00 | 0.00 | 0.00 | 58 | 1003.5 |
| 20260504200026 | 77 | 302 | 2.6 | 9.6 | 0.00 | 0.00 | 0.00 | 59 | 1003.7 |
| 20260504195505 | 76 | 129 | 1.7 | 9.6 | 0.00 | 0.00 | 0.00 | 60 | 1003.8 |
| 20260504195006 | 75 | 138 | 0.9 | 5.2 | 0.00 | 0.00 | 0.00 | 65 | 1003.9 |
| 20260504194516 | 74 | 239 | 1.7 | 6.1 | 0.00 | 0.00 | 0.00 | 62 | 1004.0 |
| 20260504194007 | 73 | 132 | 0.9 | 6.1 | 0.00 | 0.00 | 0.00 | 69 | 1004.0 |
| 20260504193508 | 72 | 193 | 1.7 | 6.1 | 0.00 | 0.00 | 0.00 | 64 | 1004.0 |
| 20260504193024 | 72 | 115 | 0.9 | 2.6 | 0.00 | 0.00 | 0.00 | 65 | 1004.0 |
| 20260504192510 | 71 | 139 | 0.9 | 5.2 | 0.00 | 0.00 | 0.00 | 67 | 1004.1 |
| 20260504192009 | 72 | 116 | 0.9 | 6.1 | 0.00 | 0.00 | 0.00 | 65 | 1004.3 |
| 20260504191503 | 72 | 215 | 1.7 | 6.1 | 0.00 | 0.00 | 0.00 | 63 | 1004.5 |
| 20260504191006 | 72 | 250 | 1.7 | 6.1 | 0.00 | 0.00 | 0.00 | 68 | 1004.4 |
| 20260504190506 | 71 | 170 | 1.7 | 6.1 | 0.00 | 0.00 | 0.00 | 66 | 1004.3 |
| 20260504190009 | 69 | 214 | 1.7 | 9.6 | 0.00 | 0.00 | 0.00 | 70 | 1004.0 |
| 20260504185507 | 66 | 229 | 2.6 | 9.6 | 0.00 | 0.00 | 0.00 | 71 | 1003.8 |
| 20260504185005 | 65 | 195 | 1.7 | 7.8 | 0.00 | 0.00 | 0.00 | 72 | 1003.7 |
| 20260504184516 | 65 | 173 | 4.3 | 8.7 | 0.00 | 0.00 | 0.00 | 71 | 1003.5 |
| 20260504184007 | 65 | 114 | 2.6 | 8.7 | 0.00 | 0.00 | 0.00 | 71 | 1004.0 |
| 20260504183512 | 65 | 139 | 2.6 | 8.7 | 0.00 | 0.00 | 0.00 | 71 | 1004.6 |
| 20260504183020 | 66 | 205 | 0.9 | 7.8 | 0.00 | 0.00 | 0.00 | 70 | 1004.7 |
| 20260504182508 | 66 | 209 | 0.9 | 5.2 | 0.00 | 0.00 | 0.00 | 66 | 1004.8 |
| 20260504182009 | 67 | 180 | 1.7 | 4.3 | 0.00 | 0.00 | 0.00 | 66 | 1005.2 |
| 20260504181521 | 67 | 194 | 0.9 | 3.5 | 0.00 | 0.00 | 0.00 | 65 | 1005.4 |
| 20260504181011 | 67 | 223 | 1.7 | 8.7 | 0.00 | 0.00 | 0.00 | 65 | 1005.3 |
| 20260504180512 | 67 | 148 | 2.6 | 8.7 | 0.00 | 0.00 | 0.00 | 65 | 1005.1 |
| 20260504180008 | 68 | 158 | 1.7 | 6.1 | 0.00 | 0.00 | 0.00 | 66 | 1005.0 |
| 20260504175506 | 68 | 215 | 1.7 | 6.1 | 0.00 | 0.00 | 0.00 | 64 | 1005.0 |
| 20260504175004 | 68 | 140 | 0.9 | 5.2 | 0.00 | 0.00 | 0.00 | 65 | 1005.1 |
| 20260504174511 | 68 | 215 | 1.7 | 4.3 | 0.00 | 0.00 | 0.00 | 65 | 1005.2 |
| 20260504174004 | 68 | 302 | 1.7 | 5.2 | 0.00 | 0.00 | 0.00 | 63 | 1005.2 |
| 20260504173506 | 68 | 223 | 0.9 | 7.0 | 0.00 | 0.00 | 0.00 | 63 | 1005.2 |
| 20260504173019 | 69 | 128 | 1.7 | 7.0 | 0.00 | 0.00 | 0.00 | 62 | 1005.3 |
| 20260504172508 | 69 | 235 | 0.9 | 5.2 | 0.00 | 0.00 | 0.00 | 63 | 1005.6 |
| 20260504172008 | 68 | 96 | 0.9 | 5.2 | 0.00 | 0.00 | 0.00 | 67 | 1005.7 |
| 20260504171524 | 68 | 153 | 0.9 | 4.3 | 0.00 | 0.00 | 0.00 | 64 | 1005.7 |
| 20260504171013 | 67 | 224 | 1.7 | 4.3 | 0.00 | 0.00 | 0.00 | 64 | 1005.8 |
| 20260504170510 | 67 | 201 | 0.9 | 3.5 | 0.00 | 0.00 | 0.00 | 65 | 1005.9 |
| 20260504151009 | 64 | 133 | 0.9 | 5.2 | 0.00 | 0.00 | 0.00 | 66 | 1006.5 |
| 20260504150511 | 64 | 199 | 0.0 | 4.3 | 0.00 | 0.00 | 0.00 | 65 | 1007.1 |
| 20260504141007 | 66 | 223 | 0.0 | 4.3 | 0.00 | 0.00 | 0.00 | 62 | 1007.2 |
| 20260504140507 | 66 | 228 | 1.7 | 4.3 | 0.00 | 0.00 | 0.00 | 61 | 1007.2 |
| 20260504130509 | 64 | 230 | 1.7 | 4.3 | 0.00 | 0.00 | 0.00 | 65 | 1007.7 |
| 20260504110508 | 58 | 155 | 0.0 | 0.0 | 0.00 | 0.00 | 0.00 | 74 | 1008.1 |
| 20260504100505 | 60 | 227 | 0.0 | 0.0 | 0.00 | 0.00 | 0.00 | 69 | 1008.2 |
| 20260504081521 | 57 | 42 | 0.0 | 0.0 | 0.00 | 0.00 | 0.00 | 77 | 1008.3 |
| 20260504081011 | 58 | 42 | 0.0 | 0.0 | 0.00 | 0.00 | 0.00 | 75 | 1008.4 |
| 20260504080511 | 59 | 42 | 0.0 | 0.0 | 0.00 | 0.00 | 0.00 | 75 | 1008.5 |